Gainesville, GA

11:50 PM EST on December 03, 2016 (GMT -0500)
Gilmer Memorial

Weather History for KGVL - June, 2013

Change the Weather History Date:

Thursday, June 20, 2013

  Actual Average Record
Temperature  
Mean Temperature 77 °F 77 °F  
Max Temperature 82 °F 86 °F 102 °F (1933)
Min Temperature 71 °F 68 °F 50 °F (1935)
Cooling Degree Days 12 12  
Month to date cooling degree days 196 196  
Year to date cooling degree days 341 371  
Since 1 June cooling degree days 196 196  
Growing Degree Days 27 (Base 50)    
Moisture  
Dew Point 64 °F    
Average Humidity 62    
Maximum Humidity 73    
Minimum Humidity 51    
Precipitation  
Precipitation 0.00 in 0.16 in 3.27 in (1972)
Month to date precipitation 5.58 2.87  
Year to date precipitation 20.50 25.79  
Sea Level Pressure  
Sea Level Pressure 30.21 in    
Wind  
Wind Speed 7 mph (East)    
Max Wind Speed 12 mph    
Max Gust Speed 30 mph    
Visibility 10 miles    
Events      
T = Trace of Precipitation, MM = Missing Value Source: NWS Daily Summary

Daily Weather History Graph

Daily Weather History Graph

Search for Another Location

Airport or City:

Trip Planner

Search our weather history database for the weather conditions in past years. The results will help you decide how hot, cold, wet, or windy it might be!

Date:

Astronomy

Jun. 20, 2013 Rise Set
Actual Time 6:23 AM EDT 8:50 PM EDT
Civil Twilight 5:54 AM EDT 9:19 PM EDT
Nautical Twilight 5:18 AM EDT 9:55 PM EDT
Astronomical Twilight 4:38 AM EDT 10:35 PM EDT
Moon 5:55 PM EDT (6/20) 3:43 AM EDT (6/20)
Length of Visible Light 15h 25m
Length of Day
14h 26m
Waxing Gibbous, 89% of the Moon is Illuminated
Jun 20
Waxing Gibbous
Jun 23
Full
Jun 30
Last Quarter
Jul 8
New
Jul 15
First Quarter

Hourly Weather History & Observations

Time (EDT) Temp. Heat Index Dew Point Humidity Pressure Visibility Wind Dir Wind Speed Gust Speed Precip Events Conditions
12:53 AM - - - N/A% 30.14 in - North - - N/A   Unknown
1:53 AM - - - N/A% 30.15 in - North - - N/A   Unknown
2:53 AM - - - N/A% 30.14 in - North - - N/A   Unknown
4:53 AM - - - N/A% 30.16 in - North - - N/A   Unknown
5:53 AM - - - N/A% 30.18 in - North - - N/A   Unknown
6:53 AM - - - N/A% 30.19 in - North - - N/A   Unknown
7:53 AM - - - N/A% 30.22 in - North - - N/A   Unknown
10:30 AM 75.2 °F - 66.2 °F 73% 30.24 in 10.0 mi East 10.4 mph - N/A   Mostly Cloudy
10:42 AM 75.2 °F - 64.4 °F 69% 30.24 in 10.0 mi ENE 9.2 mph - N/A   Scattered Clouds
10:53 AM 73.9 °F - 64.9 °F 73% 30.24 in - ENE 8.1 mph - N/A   Unknown
11:23 AM 75.2 °F - 66.2 °F 73% 30.24 in 10.0 mi East 9.2 mph - N/A   Mostly Cloudy
11:32 AM 75.2 °F - 64.4 °F 69% 30.24 in 10.0 mi ENE 12.7 mph - N/A   Mostly Cloudy
11:53 AM 77.0 °F - 64.9 °F 66% 30.24 in 10.0 mi East 10.4 mph - N/A   Scattered Clouds
12:12 PM 75.2 °F - 64.4 °F 69% 30.24 in 10.0 mi ENE 9.2 mph - N/A   Mostly Cloudy
12:35 PM 77.0 °F - 64.4 °F 65% 30.24 in 10.0 mi ENE 10.4 mph 18.4 mph N/A   Mostly Cloudy
12:53 PM 78.1 °F - 64.0 °F 62% 30.25 in 10.0 mi East 11.5 mph - N/A   Mostly Cloudy
1:53 PM 80.1 °F 81.7 °F 64.0 °F 58% 30.24 in 10.0 mi East 9.2 mph - N/A   Partly Cloudy
2:53 PM 81.0 °F 82.5 °F 64.0 °F 56% 30.23 in 10.0 mi SE 8.1 mph - N/A   Partly Cloudy
3:53 PM 81.0 °F 82.5 °F 64.0 °F 56% 30.21 in 10.0 mi East 11.5 mph - N/A   Scattered Clouds
4:53 PM 82.0 °F 83.0 °F 62.1 °F 51% 30.21 in 10.0 mi East 9.2 mph - N/A   Scattered Clouds
5:53 PM 79.0 °F - 63.0 °F 58% 30.20 in 10.0 mi ESE 8.1 mph - N/A   Unknown
6:53 PM 80.1 °F 81.2 °F 62.1 °F 54% 30.19 in 10.0 mi East 6.9 mph - N/A   Unknown
7:53 PM 78.1 °F - 63.0 °F 60% 30.20 in 10.0 mi East 5.8 mph - N/A   Clear
8:53 PM 75.0 °F - 64.0 °F 69% 30.21 in 10.0 mi East 3.5 mph - N/A   Clear
9:53 PM 73.0 °F - 64.0 °F 73% 30.23 in 10.0 mi East 3.5 mph - N/A   Clear
10:53 PM 72.0 °F - 63.0 °F 73% 30.24 in 10.0 mi East 3.5 mph - N/A   Clear
11:53 PM 71.1 °F - 63.0 °F 75% 30.21 in 10.0 mi East 3.5 mph - N/A   Clear